Change the Weather History Date:

Monday, December 24, 2012

  Actual Average (KABE) Record (KABE)
Temperature  
Mean Temperature 26 °F 30 °F  
Max Temperature 33 °F 38 °F 62 °F (1990)
Min Temperature 19 °F 22 °F -5 °F (1989)
Degree Days  
Heating Degree Days 39 35  
Month to date heating degree days 763  
Since 1 July heating degree days 1943  
Cooling Degree Days 0 0  
Month to date cooling degree days 0  
Year to date cooling degree days 757  
Moisture  
Dew Point 21 °F    
Average Humidity 82    
Maximum Humidity 100    
Minimum Humidity 64    
Precipitation  
Precipitation 0.00 in 0.11 in 1.48 in (2008)
Month to date precipitation 2.89  
Year to date precipitation 44.66  
Snow  
Snow 0.00 in 0.20 in 13.50 in (1912)
Month to date snowfall 3.6  
Since 1 July snowfall 4.3  
Snow Depth -    
Sea Level Pressure  
Sea Level Pressure 30.03 in    
Wind  
Wind Speed 0 mph (North)    
Max Wind Speed 0 mph    
Max Gust Speed -    
Visibility 10 miles    
Events      
T = Trace of Precipitation, MM = Missing Value Source: NWS Daily Summary

Daily Weather History Graph

Daily Weather History Graph

Search for Another Location

Airport or City:

Trip Planner

Search our weather history database for the weather conditions in past years. The results will help you decide how hot, cold, wet, or windy it might be!

Date:

Astronomy

Dec. 24, 2012 Rise Set
Actual Time 7:22 AM EST 4:40 PM EST
Civil Twilight 6:51 AM EST 5:10 PM EST
Nautical Twilight 6:17 AM EST 5:45 PM EST
Astronomical Twilight 5:44 AM EST 6:18 PM EST
Moon 2:06 PM EST (12/24) 3:58 AM EST (12/24)
Length of Visible Light 10h 19m
Length of Day
9h 17m
Waxing Gibbous, 88% of the Moon is Illuminated
Dec 24
Waxing Gibbous
Dec 28
Full
Jan 4
Last Quarter
Jan 11
New
Jan 18
First Quarter

Hourly Weather History & Observations

Time (EST) Temp. Dew Point Humidity Pressure Visibility Wind Dir Wind Speed Gust Speed Precip Events Conditions
12:10 AM 26.6 °F 21.2 °F 80% 29.97 in 10.0 mi Calm Calm - N/A   Clear
12:30 AM 32.0 °F 21.2 °F 64% 29.97 in 10.0 mi Calm Calm - N/A   Clear
12:50 AM 32.0 °F 21.2 °F 64% 29.97 in 10.0 mi Calm Calm - N/A   Clear
1:10 AM 32.0 °F 21.2 °F 64% 29.98 in 10.0 mi Calm Calm - N/A   Clear
1:30 AM 28.4 °F 23.0 °F 80% 29.99 in 10.0 mi Calm Calm - N/A   Clear
1:50 AM 28.4 °F 23.0 °F 80% 29.99 in 10.0 mi Calm Calm - N/A   Clear
2:10 AM 28.4 °F 21.2 °F 74% 30.00 in 10.0 mi Calm Calm - N/A   Clear
2:30 AM 28.4 °F 21.2 °F 74% 30.00 in 10.0 mi Calm Calm - N/A   Clear
2:50 AM 28.4 °F 21.2 °F 74% 30.00 in 10.0 mi Calm Calm - N/A   Clear
3:10 AM 26.6 °F 21.2 °F 80% 30.01 in 10.0 mi Calm Calm - N/A   Clear
3:30 AM 26.6 °F 21.2 °F 80% 30.01 in 10.0 mi Calm Calm - N/A   Clear
3:50 AM 24.8 °F 23.0 °F 93% 30.01 in 10.0 mi Calm Calm - N/A   Clear
4:10 AM 24.8 °F 19.4 °F 80% 30.00 in 10.0 mi Calm Calm - N/A   Clear
4:30 AM 23.0 °F 19.4 °F 86% 30.01 in 10.0 mi Calm Calm - N/A   Clear
4:50 AM 23.0 °F 19.4 °F 86% 30.01 in 10.0 mi Calm Calm - N/A   Clear
5:10 AM 23.0 °F 19.4 °F 86% 30.02 in 10.0 mi Calm Calm - N/A   Clear
5:30 AM 21.2 °F 19.4 °F 93% 30.02 in 10.0 mi Calm Calm - N/A   Clear
5:50 AM 21.2 °F 19.4 °F 93% 30.03 in 10.0 mi Calm Calm - N/A   Clear
6:10 AM 21.2 °F 19.4 °F 93% 30.04 in 9.0 mi Calm Calm - N/A   Clear
6:30 AM 21.2 °F 17.6 °F 86% 30.05 in 10.0 mi Calm Calm - N/A   Clear
6:50 AM 19.4 °F 19.4 °F 100% 30.06 in 7.0 mi Calm Calm - N/A   Clear
7:10 AM 19.4 °F 19.4 °F 100% 30.06 in 10.0 mi Calm Calm - N/A   Clear
7:30 AM 19.4 °F 17.6 °F 93% 30.06 in 9.0 mi Calm Calm - N/A   Clear
7:50 AM 21.2 °F 19.4 °F 93% 30.07 in 9.0 mi Calm Calm - N/A   Clear
8:10 AM 23.0 °F 21.2 °F 93% 30.08 in 10.0 mi Calm Calm - N/A   Clear
8:30 AM 24.8 °F 23.0 °F 93% 30.08 in 9.0 mi Calm Calm - N/A   Clear
8:50 AM 26.6 °F 23.0 °F 86% 30.08 in 10.0 mi Calm Calm - N/A   Clear
9:10 AM 28.4 °F 24.8 °F 86% 30.08 in 10.0 mi Calm Calm - N/A   Clear
9:30 AM 32.0 °F 26.6 °F 80% 30.08 in 10.0 mi Calm Calm - N/A   Clear
9:50 AM 32.0 °F 23.0 °F 69% 30.07 in 10.0 mi Calm Calm - N/A   Clear
10:10 AM 33.8 °F 23.0 °F 65% 30.07 in 10.0 mi Calm Calm - N/A   Clear
10:30 AM 33.8 °F 23.0 °F 65% 30.07 in 10.0 mi Calm Calm - N/A   Clear
10:35 AM 33.8 °F 23.0 °F 65% 30.06 in 10.0 mi Calm Calm - N/A   Clear